• In France
  • List of Countries
  • For 7 days
  • Water Temperature
  • Satellite Maps
  • Weather Map
  • Weather Widgets
  • user-avatar
    Login

    Hourly Weather Dangriga

    Today, 17 January, Wednesday

    Time Temperature Precipitation Wind Pressure Humidity
    00:00 +21°C° 0.2 mm 4 mps 766 mmHg 91%
    01:00 +21°C° 0 mm 5 mps 766 mmHg 92%
    02:00 +20°C° 0 mm 5 mps 766 mmHg 92%
    03:00 +20°C° 0 mm 5 mps 765 mmHg 92%
    04:00 +20°C° 0 mm 5 mps 766 mmHg 90%
    05:00 +19°C° 0 mm 5 mps 766 mmHg 88%
    06:00 +19°C° 0 mm 5 mps 766 mmHg 86%
    07:00 +19°C° 0 mm 5 mps 767 mmHg 81%
    08:00 +20°C° 0 mm 5 mps 768 mmHg 77%
    09:00 +21°C° 0 mm 5 mps 768 mmHg 73%
    10:00 +23°C° 0 mm 5 mps 768 mmHg 65%
    11:00 +25°C° 0 mm 5 mps 768 mmHg 58%
    12:00 +27°C° 0 mm 4 mps 768 mmHg 50%
    13:00 +28°C° 0 mm 4 mps 767 mmHg 49%
    14:00 +28°C° 0 mm 4 mps 766 mmHg 49%
    15:00 +28°C° 0 mm 3 mps 766 mmHg 48%
    16:00 +27°C° 0 mm 4 mps 766 mmHg 57%
    17:00 +25°C° 0 mm 4 mps 766 mmHg 65%
    18:00 +22°C° 0 mm 4 mps 766 mmHg 73%
    19:00 +22°C° 0.1 mm 4 mps 766 mmHg 74%
    20:00 +22°C° 0.1 mm 5 mps 767 mmHg 74%
    21:00 +21°C° 0.1 mm 6 mps 767 mmHg 74%
    22:00 +21°C° 0.4 mm 6 mps 767 mmHg 77%
    23:00 +21°C° 0.4 mm 6 mps 767 mmHg 80%

    Tomorrow, 18 January, Thursday

    Time Temperature Precipitation Wind Pressure Humidity
    00:00 +20°C° 0.4 mm 6 mps 767 mmHg 83%
    01:00 +20°C° 1.5 mm 6 mps 766 mmHg 88%
    02:00 +18°C° 1.5 mm 7 mps 766 mmHg 92%
    03:00 +18°C° 1.5 mm 7 mps 765 mmHg 97%
    04:00 +18°C° 2.2 mm 7 mps 765 mmHg 97%
    05:00 +18°C° 2.2 mm 7 mps 765 mmHg 97%
    06:00 +18°C° 2.2 mm 7 mps 765 mmHg 97%
    07:00 +19°C° 1 mm 6 mps 766 mmHg 97%
    08:00 +19°C° 1 mm 6 mps 767 mmHg 97%
    09:00 +19°C° 1 mm 6 mps 767 mmHg 97%
    10:00 +19°C° 1.1 mm 5 mps 767 mmHg 98%
    11:00 +19°C° 1.1 mm 5 mps 767 mmHg 98%
    12:00 +19°C° 1.1 mm 5 mps 767 mmHg 98%
    13:00 +19°C° 1.3 mm 5 mps 766 mmHg 98%
    14:00 +20°C° 1.3 mm 5 mps 765 mmHg 98%
    15:00 +20°C° 1.3 mm 5 mps 764 mmHg 98%
    16:00 +20°C° 1.1 mm 5 mps 764 mmHg 98%
    17:00 +20°C° 1.1 mm 6 mps 764 mmHg 98%
    18:00 +20°C° 1.1 mm 6 mps 765 mmHg 99%
    19:00 +20°C° 0.8 mm 6 mps 765 mmHg 99%
    20:00 +20°C° 0.8 mm 6 mps 766 mmHg 99%
    21:00 +21°C° 0.8 mm 6 mps 766 mmHg 99%
    22:00 +21°C° 0.7 mm 6 mps 766 mmHg 99%
    23:00 +21°C° 0.7 mm 6 mps 766 mmHg 99%

    Day after tomorrow, 19 January, Friday

    Time Temperature Precipitation Wind Pressure Humidity
    00:00 +21°C° 0.7 mm 6 mps 766 mmHg 99%
    01:00 +21°C° 0.5 mm 6 mps 765 mmHg 98%
    02:00 +21°C° 0.5 mm 6 mps 765 mmHg 98%
    03:00 +21°C° 0.5 mm 6 mps 764 mmHg 98%
    04:00 +20°C° 0.2 mm 6 mps 764 mmHg 98%
    05:00 +20°C° 0.2 mm 5 mps 765 mmHg 98%
    06:00 +20°C° 0.2 mm 5 mps 765 mmHg 98%
    07:00 +20°C° 0.2 mm 5 mps 765 mmHg 97%
    08:00 +21°C° 0.2 mm 5 mps 766 mmHg 95%
    09:00 +21°C° 0.2 mm 5 mps 766 mmHg 94%
    10:00 +22°C° 0.2 mm 5 mps 766 mmHg 88%
    11:00 +23°C° 0.2 mm 5 mps 766 mmHg 83%
    12:00 +25°C° 0.2 mm 4 mps 765 mmHg 78%
    13:00 +25°C° 0.2 mm 4 mps 765 mmHg 78%
    14:00 +25°C° 0.2 mm 4 mps 764 mmHg 78%
    15:00 +25°C° 0.2 mm 4 mps 763 mmHg 79%
    16:00 +23°C° 0 mm 4 mps 763 mmHg 82%
    17:00 +23°C° 0 mm 4 mps 763 mmHg 85%
    18:00 +22°C° 0 mm 4 mps 763 mmHg 87%
    19:00 +22°C° 0 mm 4 mps 764 mmHg 88%
    20:00 +22°C° 0 mm 4 mps 764 mmHg 88%
    21:00 +21°C° 0 mm 4 mps 765 mmHg 89%
    22:00 +21°C° 0 mm 4 mps 764 mmHg 90%
    23:00 +20°C° 0 mm 4 mps 764 mmHg 92%

    20 January, Saturday

    Time Temperature Precipitation Wind Pressure Humidity
    00:00 +20°C° 0 mm 4 mps 764 mmHg 94%
    01:00 +20°C° 0 mm 3 mps 763 mmHg 94%
    02:00 +20°C° 0 mm 3 mps 763 mmHg 95%
    03:00 +20°C° 0 mm 3 mps 762 mmHg 96%
    04:00 +20°C° 0.1 mm 3 mps 762 mmHg 96%
    05:00 +20°C° 0.1 mm 3 mps 763 mmHg 95%
    06:00 +20°C° 0.1 mm 3 mps 763 mmHg 95%
    07:00 +21°C° 0.1 mm 3 mps 763 mmHg 93%
    08:00 +22°C° 0.1 mm 3 mps 764 mmHg 90%
    09:00 +22°C° 0.1 mm 3 mps 764 mmHg 87%
    10:00 +25°C° 0 mm 4 mps 764 mmHg 79%
    11:00 +27°C° 0 mm 4 mps 763 mmHg 70%
    12:00 +28°C° 0 mm 4 mps 763 mmHg 61%
    13:00 +28°C° 0 mm 4 mps 762 mmHg 61%
    14:00 +28°C° 0 mm 4 mps 761 mmHg 61%
    15:00 +28°C° 0 mm 4 mps 760 mmHg 61%
    16:00 +27°C° 0.2 mm 4 mps 761 mmHg 68%
    17:00 +26°C° 0.2 mm 4 mps 761 mmHg 76%
    18:00 +25°C° 0.2 mm 4 mps 761 mmHg 83%
    19:00 +23°C° 0.7 mm 4 mps 761 mmHg 86%
    20:00 +23°C° 0.7 mm 4 mps 762 mmHg 89%
    21:00 +23°C° 0.7 mm 4 mps 762 mmHg 91%
    22:00 +24°C° 0.7 mm 3 mps 762 mmHg 93%
    23:00 +24°C° 0.7 mm 3 mps 762 mmHg 94%

    21 January, Sunday

    Time Temperature Precipitation Wind Pressure Humidity
    00:00 +24°C° 0.7 mm 2 mps 761 mmHg 95%
    01:00 +24°C° 0.4 mm 2 mps 761 mmHg 96%
    02:00 +24°C° 0.4 mm 2 mps 760 mmHg 96%
    03:00 +24°C° 0.4 mm 2 mps 760 mmHg 97%
    04:00 +23°C° 0.4 mm 2 mps 760 mmHg 97%
    05:00 +23°C° 0.4 mm 1 mps 760 mmHg 98%
    06:00 +23°C° 0.4 mm 1 mps 761 mmHg 98%
    07:00 +24°C° 0.3 mm 1 mps 761 mmHg 95%
    08:00 +25°C° 0.3 mm 1 mps 761 mmHg 92%
    09:00 +26°C° 0.3 mm 1 mps 762 mmHg 88%
    10:00 +28°C° 0.1 mm 1 mps 761 mmHg 79%
    11:00 +29°C° 0.1 mm 1 mps 761 mmHg 70%
    12:00 +31°C° 0.1 mm 1 mps 760 mmHg 62%
    13:00 +31°C° 0 mm 2 mps 760 mmHg 60%
    14:00 +31°C° 0 mm 2 mps 759 mmHg 59%
    15:00 +31°C° 0 mm 2 mps 758 mmHg 58%
    16:00 +29°C° 0 mm 2 mps 758 mmHg 68%
    17:00 +28°C° 0 mm 3 mps 759 mmHg 77%
    18:00 +26°C° 0 mm 3 mps 759 mmHg 87%
    19:00 +25°C° 0 mm 3 mps 760 mmHg 90%
    20:00 +25°C° 0 mm 3 mps 760 mmHg 93%
    21:00 +24°C° 0 mm 3 mps 760 mmHg 96%
    22:00 +24°C° 0.1 mm 3 mps 760 mmHg 97%
    23:00 +24°C° 0.1 mm 3 mps 760 mmHg 97%

    22 January, Monday

    Time Temperature Precipitation Wind Pressure Humidity
    00:00 +24°C° 0.1 mm 3 mps 760 mmHg 98%
    01:00 +24°C° 0.2 mm 3 mps 760 mmHg 98%
    02:00 +24°C° 0.2 mm 3 mps 759 mmHg 98%
    03:00 +24°C° 0.2 mm 2 mps 759 mmHg 98%
    04:00 +24°C° 0.9 mm 2 mps 760 mmHg 98%
    05:00 +24°C° 0.9 mm 2 mps 760 mmHg 98%
    06:00 +24°C° 0.9 mm 2 mps 760 mmHg 98%
    07:00 +25°C° 1.3 mm 2 mps 761 mmHg 95%
    08:00 +26°C° 1.3 mm 2 mps 761 mmHg 91%
    09:00 +27°C° 1.3 mm 2 mps 762 mmHg 88%
    10:00 +27°C° 1.2 mm 2 mps 761 mmHg 86%
    11:00 +28°C° 1.2 mm 2 mps 761 mmHg 85%
    12:00 +28°C° 1.2 mm 2 mps 761 mmHg 84%
    13:00 +28°C° 0.5 mm 2 mps 760 mmHg 81%
    14:00 +29°C° 0.5 mm 3 mps 759 mmHg 78%
    15:00 +29°C° 0.5 mm 3 mps 759 mmHg 75%
    16:00 +28°C° 0.1 mm 3 mps 759 mmHg 79%
    17:00 +27°C° 0.1 mm 3 mps 759 mmHg 83%
    18:00 +26°C° 0.1 mm 3 mps 760 mmHg 87%
    19:00 +25°C° 0.2 mm 3 mps 760 mmHg 90%
    20:00 +25°C° 0.2 mm 3 mps 760 mmHg 93%
    21:00 +24°C° 0.2 mm 3 mps 761 mmHg 95%
    22:00 +24°C° 0.3 mm 3 mps 761 mmHg 96%
    23:00 +24°C° 0.3 mm 3 mps 761 mmHg 96%
    Show more